CAPE
896 1056 924 1043 765 675 739 635 417 386 378 396 467 618 493 438 513 324 361 380 265 129 212 1 6 29 306 376 384 482 516 674 780 714 845 987 878 890 982 945 836 840
993 1055 1241 1316 1128 872 837 584 569 460 497 571 656 544 472 484 459 313 259 87 40 5 134 13 81 70 130 172 339 479 622 734 788 860 838 893 946 958 930 960 943 914
876 1092 1288 1249 1196 980 789 853 842 709 731 707 586 584 504 482 401 277 39 6 2 1 7 27 57 106 76 312 365 431 534 689 797 934 799 698 809 1098 888 903 853 753
1038 1244 1092 1037 1015 860 880 975 866 804 758 696 646 547 382 386 338 227 150 102 0 4 29 83 71 185 51 149 312 399 497 657 750 747 765 790 832 949 1034 1008 1015 746
786 846 610 541 619 795 1085 739 578 607 637 579 526 421 290 216 176 5 0 0 8 67 106 91 153 52 53 269 242 288 338 348 470 546 448 492 726 701 754 856 1102 692
818 653 635 453 662 837 792 528 435 413 428 439 381 316 276 39 0 2 4 7 21 60 58 95 11 2 58 243 237 259 203 10 20 49 44 352 416 517 697 832 755 817
668 594 602 634 454 609 497 490 442 410 397 391 346 251 7 0 0 2 4 16 37 54 79 5 0 14 6 0 0 0 0 3 4 5 0 0 178 340 576 722 674 883
654 652 685 411 327 461 469 456 413 376 402 348 233 209 165 0 123 1 3 6 9 11 26 0 0 47 0 0 0 9 32 1 0 0 0 0 0 412 567 614 607 797
801 678 606 210 311 414 449 449 362 360 366 306 207 217 188 150 1 1 0 0 0 0 3 0 0 0 0 2 0 0 0 0 0 0 0 0 10 305 406 436 545 699
727 692 579 422 363 382 418 252 335 332 329 292 183 205 197 142 6 8 0 0 0 0 0 3 27 1 0 0 0 0 0 0 0 0 0 0 0 27 401 552 628 711
620 599 533 406 393 462 326 290 277 248 217 178 23 181 195 124 0 2 0 0 0 0 0 0 5 0 0 0 0 0 0 0 0 0 1 0 0 297 495 654 682 690
552 443 305 445 444 436 367 264 1 2 29 45 24 211 186 0 0 0 0 0 0 0 0 0 0 0 0 0 0 0 0 0 0 0 0 0 8 35 267 465 556 560
335 289 332 465 389 324 287 252 1 3 26 49 58 194 181 0 0 0 0 0 0 0 0 0 0 0 0 0 0 0 0 0 0 0 0 0 0 0 11 326 339 189
229 288 535 405 388 294 323 195 3 1 6 6 105 114 6 5 16 1 0 0 0 0 0 0 0 0 0 0 0 0 0 4 0 0 0 6 6 3 0 0 0 0
657 640 424 323 332 250 222 46 1 0 0 4 6 7 17 4 2 0 2 0 0 0 0 0 0 0 0 0 0 0 0 0 0 1 16 13 9 3 2 0 0 0
453 356 242 218 295 355 280 56 8 2 0 0 0 21 103 63 0 0 0 0 0 0 0 0 0 0 0 0 0 1 16 24 23 29 10 38 38 0 1 19 5 31
363 360 270 190 242 255 174 130 2 1 0 0 0 0 55 8 0 1 0 0 0 0 0 0 0 0 0 0 0 0 0 11 191 246 198 97 190 151 2 80 132 130
309 346 279 228 262 261 169 82 0 1 1 8 10 8 6 16 32 14 1 0 0 0 0 0 0 0 0 0 0 0 0 0 111 249 202 141 133 149 165 100 10 74
354 345 294 254 209 201 139 119 58 0 0 6 14 9 18 72 14 0 0 0 0 0 0 0 0 0 0 0 0 0 7 0 4 47 220 223 164 140 120 63 5 71
442 386 336 257 175 104 104 135 20 0 0 0 0 0 0 0 0 0 0 0 0 0 0 0 0 0 0 0 0 52 102 134 175 210 283 226 231 200 123 29 97 124
284 364 338 256 202 163 80 4 0 0 0 0 1 1 0 0 0 0 0 0 0 0 0 0 47 0 20 0 24 42 52 77 123 248 308 306 220 150 114 118 32 28
60 173 155 226 235 179 109 85 38 0 0 0 0 0 0 0 0 0 0 0 0 24 0 7 42 22 43 32 0 0 0 0 76 223 268 253 216 172 143 122 110 90
14 58 48 14 121 175 127 111 50 8 7 3 0 26 46 42 13 4 2 1 0 0 0 0 0 0 20 0 0 0 0 1 101 139 133 138 126 105 86 72 75 74
4 15 19 31 43 64 85 124 116 67 14 0 5 45 71 51 20 8 8 14 18 25 36 30 0 0 0 0 0 0 24 51 82 94 96 102 84 63 48 40 38 44
2 5 5 9 13 23 36 74 84 25 0 0 12 67 63 71 45 8 4 3 17 27 40 40 38 38 14 41 0 31 47 52 57 69 76 78 76 57 36 33 31 13
10 2 3 4 7 8 18 16 3 2 2 0 1 39 55 58 32 2 0 10 27 28 36 39 44 43 30 3 3 31 26 3 54 52 51 46 42 40 29 1 1 1
Wind_Speed
15 16 15 16 15 15 15 14 13 13 13 14 16 16 17 18 19 21 21 20 18 17 15 nan nan nan 12 12 11 12 13 12 12 12 13 14 13 14 15 16 15 14
14 10 13 14 15 14 14 13 14 14 13 14 15 16 17 19 20 22 22 nan nan nan 14 nan nan nan 12 14 14 14 14 14 12 12 14 14 13 14 14 15 16 15
12 10 12 14 14 14 13 13 14 14 15 15 17 18 18 20 21 23 nan nan nan nan nan nan nan 10 nan 14 14 15 14 13 12 12 14 14 14 15 14 15 16 16
18 17 15 16 15 14 13 15 16 18 18 19 18 19 20 21 23 23 22 21 nan nan nan nan nan 10 nan 14 14 15 14 12 11 12 13 14 14 15 15 15 16 16
21 19 15 16 16 15 17 18 20 21 23 22 20 20 22 23 24 nan nan nan nan nan 12 nan 11 nan nan 14 14 16 15 14 13 14 15 15 14 16 16 17 17 16
18 19 17 19 19 17 20 21 22 24 24 23 21 21 23 nan nan nan nan nan nan nan nan nan nan nan nan 16 18 17 16 nan nan nan nan 16 15 16 17 18 17 16
19 20 21 20 18 10 21 22 24 24 23 22 22 22 nan nan nan nan nan nan nan nan nan nan nan nan nan nan nan nan nan nan nan nan nan nan 17 16 17 19 19 19
22 21 21 19 17 14 23 23 23 22 21 21 20 20 23 nan 24 nan nan nan nan nan nan nan nan nan nan nan nan nan nan nan nan nan nan nan nan 18 19 20 20 20
21 20 20 18 16 17 22 22 22 21 21 21 19 20 23 24 nan nan nan nan nan nan nan nan nan nan nan nan nan nan nan nan nan nan nan nan nan 19 20 20 20 20
19 18 17 15 15 16 19 20 21 22 22 21 17 19 22 22 nan nan nan nan nan nan nan nan nan nan nan nan nan nan nan nan nan nan nan nan nan nan 20 20 19 20
17 17 16 16 15 16 18 21 22 22 22 20 nan 18 20 21 nan nan nan nan nan nan nan nan nan nan nan nan nan nan nan nan nan nan nan nan nan 20 20 19 20 19
16 15 15 16 18 19 20 22 nan nan nan nan nan 18 20 nan nan nan nan nan nan nan nan nan nan nan nan nan nan nan nan nan nan nan nan nan nan nan 20 20 20 19
16 13 12 16 17 20 20 21 nan nan nan nan nan 20 21 nan nan nan nan nan nan nan nan nan nan nan nan nan nan nan nan nan nan nan nan nan nan nan nan 20 20 20
17 13 13 16 17 20 21 21 nan nan nan nan 19 20 nan nan nan nan nan nan nan nan nan nan nan nan nan nan nan nan nan nan nan nan nan nan nan nan nan nan nan nan
19 16 16 17 18 20 20 nan nan nan nan nan nan nan nan nan nan nan nan nan nan nan nan nan nan nan nan nan nan nan nan nan nan nan nan nan nan nan nan nan nan nan
22 19 18 16 20 21 21 nan nan nan nan nan nan nan 21 nan nan nan nan nan nan nan nan nan nan nan nan nan nan nan nan nan nan nan nan nan nan nan nan nan nan nan
23 19 17 19 21 24 25 26 nan nan nan nan nan nan nan nan nan nan nan nan nan nan nan nan nan nan nan nan nan nan nan nan 29 27 26 nan 30 29 nan nan 28 28
22 19 17 17 24 27 28 nan nan nan nan nan nan nan nan nan nan nan nan nan nan nan nan nan nan nan nan nan nan nan nan nan 29 30 30 31 31 31 30 30 nan nan
20 18 17 19 23 28 29 29 nan nan nan nan nan nan nan nan nan nan nan nan nan nan nan nan nan nan nan nan nan nan nan nan nan nan 33 32 31 32 32 nan nan nan
23 22 21 21 24 28 28 27 nan nan nan nan nan nan nan nan nan nan nan nan nan nan nan nan nan nan nan nan nan nan 33 32 29 30 31 32 32 32 32 nan nan 28
21 21 23 23 25 28 nan nan nan nan nan nan nan nan nan nan nan nan nan nan nan nan nan nan nan nan nan nan nan nan nan nan 31 32 33 34 33 32 31 31 nan nan
nan 20 25 26 25 27 29 nan nan nan nan nan nan nan nan nan nan nan nan nan nan nan nan nan nan nan nan nan nan nan nan nan nan 35 37 38 36 32 29 29 30 nan
nan nan nan nan 26 27 27 25 nan nan nan nan nan nan nan nan nan nan nan nan nan nan nan nan nan nan nan nan nan nan nan nan 34 35 37 39 36 33 nan nan nan nan
nan nan nan nan nan nan nan 22 21 nan nan nan nan nan nan nan nan nan nan nan nan nan nan nan nan nan nan nan nan nan nan nan nan nan nan 34 nan nan nan nan nan nan
nan nan nan nan nan nan nan nan nan nan nan nan nan nan nan nan nan nan nan nan nan nan nan nan nan nan nan nan nan nan nan nan nan nan nan nan nan nan nan nan nan nan
nan nan nan nan nan nan nan nan nan nan nan nan nan nan nan nan nan nan nan nan nan nan nan nan nan nan nan nan nan nan nan nan nan nan nan nan nan nan nan nan nan nan
Wind_Direction
234 244 250 256 260 263 268 272 274 279 273 267 261 260 268 271 268 265 259 258 254 249 247 nan nan nan 257 252 249 250 254 263 263 267 272 272 269 268 267 268 269 275
237 233 258 259 263 268 275 280 281 282 278 271 264 262 262 264 264 262 258 nan nan nan 249 nan nan nan 246 251 256 255 253 257 260 259 266 269 271 270 269 270 271 270
263 268 286 285 282 281 284 281 283 282 278 270 264 260 261 263 263 260 nan nan nan nan nan nan nan 247 nan 259 254 253 255 254 259 256 262 270 270 273 276 277 276 279
290 297 296 287 278 282 274 274 273 273 269 267 268 266 264 261 261 259 259 259 nan nan nan nan nan 255 nan 258 252 249 250 254 254 255 261 262 269 278 284 282 279 281
285 286 271 263 267 258 260 265 266 267 267 266 265 265 264 261 258 nan nan nan nan nan 258 nan 251 nan nan 255 250 245 241 248 250 256 259 262 273 280 283 283 284 287
268 267 266 243 225 249 261 259 258 261 260 255 259 262 264 nan nan nan nan nan nan nan nan nan nan nan nan 251 245 246 246 nan nan nan nan 272 278 279 281 284 284 284
285 279 277 272 263 240 269 263 258 257 252 250 254 261 nan nan nan nan nan nan nan nan nan nan nan nan nan nan nan nan nan nan nan nan nan nan 276 274 276 279 279 278
289 284 290 288 275 252 263 262 258 254 249 251 260 261 259 nan 261 nan nan nan nan nan nan nan nan nan nan nan nan nan nan nan nan nan nan nan nan 276 276 277 280 281
286 287 292 294 275 264 263 261 257 254 255 261 263 259 258 265 nan nan nan nan nan nan nan nan nan nan nan nan nan nan nan nan nan nan nan nan nan 279 279 278 278 279
285 286 289 278 271 266 264 260 258 256 260 265 264 260 263 266 nan nan nan nan nan nan nan nan nan nan nan nan nan nan nan nan nan nan nan nan nan nan 278 280 280 279
271 279 284 274 263 264 264 261 263 265 264 268 nan 258 260 265 nan nan nan nan nan nan nan nan nan nan nan nan nan nan nan nan nan nan nan nan nan 278 280 279 279 280
275 271 280 275 268 262 260 258 nan nan nan nan nan 256 260 nan nan nan nan nan nan nan nan nan nan nan nan nan nan nan nan nan nan nan nan nan nan nan 277 274 274 277
282 273 275 269 260 260 259 256 nan nan nan nan nan 253 257 nan nan nan nan nan nan nan nan nan nan nan nan nan nan nan nan nan nan nan nan nan nan nan nan 268 267 266
277 264 266 259 250 249 254 254 nan nan nan nan 253 254 nan nan nan nan nan nan nan nan nan nan nan nan nan nan nan nan nan nan nan nan nan nan nan nan nan nan nan nan
259 250 261 266 252 246 253 nan nan nan nan nan nan nan nan nan nan nan nan nan nan nan nan nan nan nan nan nan nan nan nan nan nan nan nan nan nan nan nan nan nan nan
244 239 250 252 246 244 250 nan nan nan nan nan nan nan 256 nan nan nan nan nan nan nan nan nan nan nan nan nan nan nan nan nan nan nan nan nan nan nan nan nan nan nan
230 227 240 247 237 236 244 246 nan nan nan nan nan nan nan nan nan nan nan nan nan nan nan nan nan nan nan nan nan nan nan nan 251 247 250 nan 256 258 nan nan 254 256
221 219 229 240 250 248 245 nan nan nan nan nan nan nan nan nan nan nan nan nan nan nan nan nan nan nan nan nan nan nan nan nan 256 255 257 256 254 254 254 252 nan nan
254 247 244 243 242 244 243 245 nan nan nan nan nan nan nan nan nan nan nan nan nan nan nan nan nan nan nan nan nan nan nan nan nan nan 258 261 261 259 259 nan nan nan
274 273 266 260 251 242 243 238 nan nan nan nan nan nan nan nan nan nan nan nan nan nan nan nan nan nan nan nan nan nan 256 259 258 257 260 263 264 264 262 nan nan 266
264 270 270 266 258 252 nan nan nan nan nan nan nan nan nan nan nan nan nan nan nan nan nan nan nan nan nan nan nan nan nan nan 258 259 260 260 259 260 262 264 nan nan
nan 257 256 249 249 248 244 nan nan nan nan nan nan nan nan nan nan nan nan nan nan nan nan nan nan nan nan nan nan nan nan nan nan 253 260 264 264 264 263 262 261 nan
nan nan nan nan 237 237 242 243 nan nan nan nan nan nan nan nan nan nan nan nan nan nan nan nan nan nan nan nan nan nan nan nan 251 252 257 263 266 265 nan nan nan nan
nan nan nan nan nan nan nan 241 239 nan nan nan nan nan nan nan nan nan nan nan nan nan nan nan nan nan nan nan nan nan nan nan nan nan nan 257 nan nan nan nan nan nan
nan nan nan nan nan nan nan nan nan nan nan nan nan nan nan nan nan nan nan nan nan nan nan nan nan nan nan nan nan nan nan nan nan nan nan nan nan nan nan nan nan nan
nan nan nan nan nan nan nan nan nan nan nan nan nan nan nan nan nan nan nan nan nan nan nan nan nan nan nan nan nan nan nan nan nan nan nan nan nan nan nan nan nan nan